User: anonymous   Login
Location: Lafig�re
(44.4503°N, 4.0357°E)
Time: 17:04:32
(UTC+00:00)
Language:

SL-08 RB Rocket - Orbit

View from above orbital plane
View from above orbital plane
View from above satellite
View from above satellite

Ground track
Ground track

The orbit data is extracted from the following two-line orbital elements,

1 26387U 00033D   20333.62166124 +.00000210 +00000-0 +44084-4 0  9998
2 26387 097.7990 007.7396 0025029 280.3396 193.2459 14.68601049350549
Epoch (UTC): 28 November 2020 14:55:11
Eccentricity: 0.0025029
inclination: 97.7990°
perigee height: 648 km
apogee height: 683 km
right ascension of ascending node: 7.7396°
argument of perigee: 280.3396°
revolutions per day: 14.68601049
mean anomaly at epoch: 193.2459°
orbit number at epoch: 35054

The dashed part of the orbit path shows where the satellite is in the earth's shadow,  

DLR